This is the latest recevied weather packets stored in our database for station/object KC2WGU. If no packets are shown the sender has not sent any weather packets the latest 10 day(s).
| Time | Temp. | Humidity | Pressure | Rain* | Wind** | Luminosity | Snow |
|---|---|---|---|---|---|---|---|
| 1777955421 | 16.67° C | 52% | 1004.1 hPa | 0 mm | - | 0 W/m² | - |
| 1777954821 | 16.67° C | 52% | 1004.1 hPa | 0 mm | - | 0 W/m² | - |
| 1777954221 | 16.67° C | 51% | 1004.1 hPa | 0 mm | - | 0 W/m² | - |
| 1777953621 | 16.67° C | 51% | 1003.9 hPa | 0 mm | - | 0 W/m² | - |
| 1777953020 | 16.67° C | 50% | 1003.8 hPa | 0 mm | - | 0 W/m² | - |
| 1777952420 | 16.67° C | 51% | 1003.8 hPa | 0 mm | - | 0 W/m² | - |
| 1777951820 | 16.11° C | 51% | 1003.9 hPa | 0 mm | - | 0 W/m² | - |
| 1777951221 | 16.11° C | 51% | 1003.9 hPa | 0 mm | - | 0 W/m² | - |
| 1777950620 | 16.67° C | 50% | 1004.1 hPa | 0 mm | - | 0 W/m² | - |
| 1777950022 | 16.67° C | 50% | 1004.1 hPa | 0 mm | - | 0 W/m² | - |
| 1777949420 | 16.11° C | 50% | 1004.2 hPa | 0 mm | - | 0 W/m² | - |
| 1777948820 | 16.11° C | 50% | 1004.2 hPa | 0 mm | - | 0 W/m² | - |
| 1777948221 | 16.11° C | 51% | 1004.3 hPa | 0 mm | - | 0 W/m² | - |
| 1777947622 | 16.11° C | 51% | 1004.3 hPa | 0 mm | - | 0 W/m² | - |
| 1777947022 | 16.11° C | 51% | 1004.5 hPa | 0 mm | - | 0 W/m² | - |
| 1777946421 | 16.11° C | 51% | 1004.5 hPa | 0 mm | - | 0 W/m² | - |
| 1777945820 | 15.56° C | 51% | 1004.5 hPa | 0 mm | - | 0 W/m² | - |
| 1777945221 | 15.56° C | 52% | 1004.5 hPa | 0 mm | - | 0 W/m² | - |
| 1777944620 | 15.56° C | 51% | 1004.5 hPa | 0 mm | - | 0 W/m² | - |
| 1777944021 | 15.56° C | 51% | 1004.5 hPa | 0 mm | - | 0 W/m² | - |
| 1777943420 | 15° C | 51% | 1004.4 hPa | 0 mm | - | 0 W/m² | - |
| 1777942821 | 15.56° C | 51% | 1004.2 hPa | 0 mm | - | 0 W/m² | - |
| 1777942220 | 15.56° C | 51% | 1004 hPa | 0 mm | - | 0 W/m² | - |
| 1777941620 | 16.11° C | 48% | 1003.8 hPa | 0 mm | - | 0 W/m² | - |
| 1777941021 | 16.67° C | 47% | 1003.8 hPa | 0 mm | - | 0 W/m² | - |
* Rain latest hour (hover to see other rain measurements)
** Current wind speed in m/s (hover to see current wind gust speed)